CW9197 Juva FI current weather conditions

sailwx.info

Wind from 262 at 4 knots gusting 12

Air temperature 0.6° C
Dewpoint -2.8° C

Last reported at 2020-Jan-21 22:55 UTC.
Time now 2020-Jan-21 23:36 UTC

Location: N 61°53' E 027°53'.
View on Google Maps.

See reports from other nearby stations

  
Tides and Currents Weather Stations Pressure Air Temp Water Temp Dewpoint Dewpoint Depression Visibility Wind Speed Wind Dir Waves Ship Positions
date/time (UTC)wind fromknots sea level pressurealtimeterstation pressurevisibilityair tempwater tempwave heightnotes
2020-Jan-21 22:55 262 4 gusting 12 0.6
2020-Jan-21 22:45 257 4 gusting 12 0.6
2020-Jan-21 22:35 265 4 gusting 11 0.6
2020-Jan-21 22:25 259 6 gusting 17 -0.0
2020-Jan-21 22:15 246 4 gusting 15 -0.0
2020-Jan-21 22:05 240 5 gusting 13 -0.0
2020-Jan-21 21:55 241 6 gusting 11 -0.0
2020-Jan-21 21:45 230 3 gusting 9 -0.0
2020-Jan-21 21:35 245 4 gusting 10 -0.0
2020-Jan-21 21:25 234 5 gusting 12 -0.0
2020-Jan-21 21:15 236 3 gusting 12 -0.6
2020-Jan-21 21:05 239 3 gusting 8 -0.6
2020-Jan-21 20:55 242 4 gusting 9 -0.0
2020-Jan-21 20:45 239 4 gusting 9 -0.0
2020-Jan-21 20:35 245 3 gusting 10 -0.0
2020-Jan-21 20:25 248 3 gusting 12 -0.0
2020-Jan-21 20:15 242 5 gusting 13 -0.0
2020-Jan-21 20:05 240 4 gusting 12 -0.0
2020-Jan-21 19:55 244 5 gusting 15 -0.0
2020-Jan-21 19:45 246 4 gusting 9 -0.0
2020-Jan-21 19:35 245 6 gusting 13 -0.0
2020-Jan-21 19:25 239 4 gusting 10 -0.0
2020-Jan-21 19:15 233 3 gusting 9 -0.0
2020-Jan-21 19:05 235 5 gusting 14 -0.0
2020-Jan-21 18:55 234 5 gusting 12 -0.0
2020-Jan-21 18:45 241 4 gusting 12 -0.0
2020-Jan-21 18:35 239 5 gusting 13 -0.0
2020-Jan-21 18:25 238 4 gusting 8 -0.0
2020-Jan-21 18:15 240 3 gusting 11 -0.6
2020-Jan-21 18:05 237 3 gusting 6 -0.6
2020-Jan-21 17:55 241 3 gusting 12 -0.6
2020-Jan-21 17:45 237 3 gusting 9 -0.6
2020-Jan-21 17:35 245 2 gusting 8 -0.6
2020-Jan-21 17:25 248 4 gusting 14 -0.6
2020-Jan-21 17:15 244 2 gusting 7 -0.6
2020-Jan-21 17:05 247 2 gusting 16 -0.6
2020-Jan-21 16:55 236 2 gusting 7 -0.0
2020-Jan-21 16:45 254 1 gusting 6 -0.0
2020-Jan-21 16:35 273 3 gusting 7 -0.0
2020-Jan-21 16:25 245 3 gusting 8 -0.0
2020-Jan-21 16:15 266 3 gusting 12 -0.0
2020-Jan-21 16:05 248 2 gusting 6 -0.0
2020-Jan-21 15:55 233 2 gusting 8 -0.0
2020-Jan-21 15:45 239 2 gusting 6 -0.0
2020-Jan-21 15:35 265 3 gusting 6 0.6
2020-Jan-21 15:25 261 3 gusting 10 0.6
2020-Jan-21 15:15 258 4 gusting 10 0.6
2020-Jan-21 15:05 249 3 gusting 8 0.6
2020-Jan-21 14:55 254 2 gusting 6 1.1
2020-Jan-21 14:45 253 3 gusting 12 1.1
2020-Jan-21 14:35 260 5 gusting 16 1.1
2020-Jan-21 14:25 269 5 gusting 13 1.1
2020-Jan-21 14:15 282 6 gusting 21 1.1
2020-Jan-21 14:05 282 5 gusting 16 1.1
2020-Jan-21 13:55 281 6 gusting 22 1.7
2020-Jan-21 13:45 281 5 gusting 14 1.7
2020-Jan-21 13:35 282 4 gusting 11 1.7
2020-Jan-21 13:25 281 4 gusting 11 1.7
2020-Jan-21 13:15 275 5 gusting 16 2.2
2020-Jan-21 13:05 274 6 gusting 18 2.2
2020-Jan-21 12:55 288 4 gusting 13 2.2
2020-Jan-21 12:45 287 6 gusting 14 2.2
2020-Jan-21 12:35 289 6 gusting 13 2.2
2020-Jan-21 12:25 287 6 gusting 13 2.8
2020-Jan-21 12:15 288 6 gusting 16 2.8
2020-Jan-21 12:05 288 5 gusting 18 2.8
2020-Jan-21 11:55 293 6 gusting 16 2.8
2020-Jan-21 11:45 292 5 gusting 10 3.3
2020-Jan-21 11:35 303 6 gusting 19 3.3
2020-Jan-21 11:25 299 4 gusting 13 3.3
2020-Jan-21 11:15 294 6 gusting 16 3.3
2020-Jan-21 11:05 287 6 gusting 16 3.3
2020-Jan-21 10:55 296 6 gusting 17 3.3
2020-Jan-21 10:45 283 8 gusting 16 3.3
2020-Jan-21 10:35 284 7 gusting 19 3.9
2020-Jan-21 10:25 293 6 gusting 26 3.9
2020-Jan-21 10:15 295 6 gusting 13 3.9
2020-Jan-21 10:05 295 6 gusting 19 3.9
2020-Jan-21 09:55 292 7 gusting 19 3.9
2020-Jan-21 09:45 290 5 gusting 14 3.9
2020-Jan-21 09:35 297 7 gusting 19 3.9
2020-Jan-21 09:25 289 6 gusting 15 3.9
2020-Jan-21 09:15 286 6 gusting 14 3.9
2020-Jan-21 09:05 283 8 gusting 19 4.4
2020-Jan-21 08:55 287 6 gusting 17 4.4
2020-Jan-21 08:45 278 6 gusting 16 4.4
2020-Jan-21 08:35 291 6 gusting 19 4.4
2020-Jan-21 08:25 279 5 gusting 14 4.4
2020-Jan-21 08:15 280 6 gusting 14 5.0
2020-Jan-21 08:05 282 6 gusting 13 5.0
2020-Jan-21 07:55 291 5 gusting 12 5.0
2020-Jan-21 07:45 286 6 gusting 15 5.0
2020-Jan-21 07:35 281 6 gusting 16 5.0
2020-Jan-21 07:25 292 6 gusting 13 5.0
2020-Jan-21 07:15 285 5 gusting 13 5.6
2020-Jan-21 07:05 285 7 gusting 17 5.6
2020-Jan-21 06:55 271 5 gusting 14 5.6
2020-Jan-21 06:45 289 5 gusting 17 5.6
2020-Jan-21 06:35 290 6 gusting 15 5.6
2020-Jan-21 06:25 281 7 gusting 26 5.6
2020-Jan-21 06:15 278 7 gusting 17 5.6
2020-Jan-21 06:05 288 8 gusting 21 5.6
2020-Jan-21 05:55 271 6 gusting 19 5.0
2020-Jan-21 05:45 267 3 gusting 13 4.4
2020-Jan-21 05:35 244 2 gusting 7 3.9
2020-Jan-21 05:25 233 0 gusting 3 2.8
2020-Jan-21 05:15 236 0 gusting 3 2.8
2020-Jan-21 05:05 231 0 gusting 3 2.8
2020-Jan-21 04:55 234 0 gusting 3 2.8
2020-Jan-21 04:45 234 1 gusting 3 2.8
2020-Jan-21 04:35 242 2 gusting 8 2.8
2020-Jan-21 04:25 239 1 gusting 3 3.3
2020-Jan-21 04:15 233 1 gusting 3 3.3
2020-Jan-21 04:05 239 1 gusting 4 3.3
2020-Jan-21 03:55 240 2 gusting 6 3.3
2020-Jan-21 03:45 238 2 gusting 6 3.3
2020-Jan-21 03:35 241 2 gusting 6 3.3
2020-Jan-21 03:25 237 3 gusting 6 3.3
2020-Jan-21 03:15 238 2 gusting 5 3.3
2020-Jan-21 03:05 232 3 gusting 6 3.9
2020-Jan-21 02:55 233 3 gusting 9 3.9
2020-Jan-21 02:45 239 4 gusting 7 4.4
2020-Jan-21 02:35 243 5 gusting 9 4.4
2020-Jan-21 02:25 240 6 gusting 10 5.0
2020-Jan-21 02:15 232 6 gusting 13 5.0
2020-Jan-21 02:05 235 7 gusting 13 5.0
2020-Jan-21 01:55 235 6 gusting 11 4.4
2020-Jan-21 01:45 239 6 gusting 12 4.4
2020-Jan-21 01:35 235 5 gusting 12 3.9
2020-Jan-21 01:25 239 4 gusting 7 3.9
2020-Jan-21 01:15 233 4 gusting 12 3.9
2020-Jan-21 01:05 237 4 gusting 12 3.9
2020-Jan-21 00:55 234 3 gusting 8 3.9
2020-Jan-21 00:45 237 6 gusting 10 3.3
2020-Jan-21 00:35 236 6 gusting 14 3.3
2020-Jan-21 00:25 240 5 gusting 12 2.8
2020-Jan-21 00:15 234 5 gusting 7 2.8
2020-Jan-21 00:05 236 4 gusting 9 2.2
2020-Jan-20 23:55 238 3 gusting 7 2.2
2020-Jan-20 23:45 235 4 gusting 9 2.2
2020-Jan-20 23:35 234 4 gusting 8 2.2
2020-Jan-20 23:25 238 4 gusting 9 2.2
2020-Jan-20 23:15 231 4 gusting 9 2.2
2020-Jan-20 23:05 224 6 gusting 10 1.7
2020-Jan-20 22:55 224 6 gusting 10 1.7
2020-Jan-20 22:45 223 5 gusting 10 1.7
2020-Jan-20 22:35 225 6 gusting 13 1.7
2020-Jan-20 22:25 230 5 gusting 8 1.7
2020-Jan-20 22:15 224 5 gusting 8 1.7
2020-Jan-20 22:05 228 5 gusting 9 1.7
2020-Jan-20 21:55 227 6 gusting 13 1.7
2020-Jan-20 21:45 223 6 gusting 10 1.7
2020-Jan-20 21:35 228 5 gusting 10 1.7
2020-Jan-20 21:25 226 5 gusting 10 1.7
2020-Jan-20 21:15 225 6 gusting 10 1.1
2020-Jan-20 21:05 225 6 gusting 13 1.7
2020-Jan-20 20:55 229 6 gusting 12 1.1
2020-Jan-20 20:45 224 7 gusting 12 1.1
2020-Jan-20 20:35 222 5 gusting 11 1.1
2020-Jan-20 20:25 222 6 gusting 10 1.1
2020-Jan-20 20:15 227 5 gusting 9 1.1
2020-Jan-20 20:05 220 6 gusting 9 1.1
2020-Jan-20 19:55 220 5 gusting 8 1.1
2020-Jan-20 19:45 222 6 gusting 11 1.1
2020-Jan-20 19:35 222 6 gusting 9 1.1
2020-Jan-20 19:25 230 4 gusting 10 1.1
2020-Jan-20 19:15 218 5 gusting 7 1.1
2020-Jan-20 19:05 221 5 gusting 7 1.1
2020-Jan-20 18:55 220 4 gusting 6 1.1
2020-Jan-20 18:45 224 4 gusting 10 1.1
2020-Jan-20 18:35 222 4 gusting 7 1.1
2020-Jan-20 18:25 223 4 gusting 10 0.6
2020-Jan-20 18:15 225 5 gusting 9 0.6
2020-Jan-20 18:05 224 4 gusting 8 0.6
2020-Jan-20 17:55 231 4 gusting 9 0.6
2020-Jan-20 17:45 225 5 gusting 8 0.6
2020-Jan-20 17:35 227 5 gusting 10 0.6
2020-Jan-20 17:25 220 4 gusting 7 0.6
2020-Jan-20 17:15 224 5 gusting 7 0.6
2020-Jan-20 17:05 223 4 gusting 6 -0.0
2020-Jan-20 16:55 228 4 gusting 9 -0.0
2020-Jan-20 16:45 234 2 gusting 6 -0.0
2020-Jan-20 16:35 233 3 gusting 6 -0.0
2020-Jan-20 16:25 231 3 gusting 6 -0.0
2020-Jan-20 16:15 236 3 gusting 6 -0.0
2020-Jan-20 16:05 228 3 gusting 7 -0.0
2020-Jan-20 15:55 229 4 gusting 8 -0.0
2020-Jan-20 15:45 238 3 gusting 7 0.6
2020-Jan-20 15:35 237 3 gusting 6 0.6
2020-Jan-20 15:25 229 3 gusting 6 0.6
2020-Jan-20 15:15 228 4 gusting 8 0.6
2020-Jan-20 15:05 232 4 gusting 8 0.6
2020-Jan-20 14:55 231 4 gusting 8 0.6
2020-Jan-20 14:45 234 4 gusting 7 0.6
2020-Jan-20 14:35 230 4 gusting 7 0.6
2020-Jan-20 14:25 233 4 gusting 8 0.6
2020-Jan-20 14:15 229 3 gusting 6 0.6
2020-Jan-20 14:05 239 2 gusting 6 0.6
2020-Jan-20 13:55 228 3 gusting 7 0.6
2020-Jan-20 13:45 225 3 gusting 6 0.6
2020-Jan-20 13:35 221 4 gusting 8 0.6
2020-Jan-20 13:25 229 4 gusting 8 0.6
2020-Jan-20 13:15 228 4 gusting 7 0.6
2020-Jan-20 13:05 229 4 gusting 6 0.6
2020-Jan-20 12:55 228 4 gusting 7 0.6
2020-Jan-20 12:45 222 4 gusting 9 0.6
2020-Jan-20 12:35 223 3 gusting 7 0.6
2020-Jan-20 12:25 233 3 gusting 7 0.6
2020-Jan-20 12:15 223 3 gusting 6 0.6
2020-Jan-20 12:05 223 5 gusting 7 0.6
2020-Jan-20 11:55 226 5 gusting 11 -0.0
2020-Jan-20 11:45 222 5 gusting 9 -0.0
2020-Jan-20 11:35 224 5 gusting 8 -0.0
2020-Jan-20 11:25 225 5 gusting 10 -0.0
2020-Jan-20 11:15 223 5 gusting 7 0.6
2020-Jan-20 11:05 222 5 gusting 9 0.6
2020-Jan-20 10:55 224 5 gusting 7 0.6
2020-Jan-20 10:45 226 4 gusting 9 0.6
2020-Jan-20 10:35 226 5 gusting 8 0.6
2020-Jan-20 10:25 221 4 gusting 7 0.6
2020-Jan-20 10:15 220 4 gusting 8 -0.0
2020-Jan-20 10:05 220 4 gusting 8 -0.0
2020-Jan-20 09:55 222 4 gusting 6 -0.0
2020-Jan-20 09:45 223 4 gusting 8 -0.0
2020-Jan-20 09:35 225 4 gusting 9 -0.0
2020-Jan-20 09:25 221 5 gusting 7 -0.0
2020-Jan-20 09:15 225 4 gusting 6 -0.0
2020-Jan-20 09:05 222 4 gusting 6 -0.0
2020-Jan-20 08:55 222 4 gusting 6 -0.0
2020-Jan-20 08:45 219 4 gusting 6 -0.6
2020-Jan-20 08:35 221 4 gusting 6 -0.6
2020-Jan-20 08:25 222 3 gusting 6 -0.6
2020-Jan-20 08:15 222 3 gusting 5 -0.6
2020-Jan-20 08:05 219 3 gusting 6 -0.6
2020-Jan-20 07:55 220 3 gusting 5 -1.1
2020-Jan-20 07:45 221 2 gusting 6 -1.1
2020-Jan-20 07:35 224 3 gusting 5 -1.1
2020-Jan-20 07:25 223 2 gusting 5 -1.1
2020-Jan-20 07:15 221 3 gusting 5 -1.7
2020-Jan-20 07:05 222 3 gusting 5 -1.7
2020-Jan-20 06:55 220 2 gusting 5 -1.7
2020-Jan-20 06:45 220 2 gusting 6 -1.7
2020-Jan-20 06:35 221 2 gusting 4 -1.7
2020-Jan-20 06:25 220 2 gusting 5 -1.7
2020-Jan-20 06:15 220 2 gusting 6 -1.7
2020-Jan-20 06:05 226 1 gusting 3 -2.2
2020-Jan-20 05:55 230 1 gusting 4 -2.2
2020-Jan-20 05:45 235 1 gusting 3 -2.2
2020-Jan-20 05:35 235 1 gusting 5 -2.2
2020-Jan-20 05:25 236 1 gusting 3 -2.2
2020-Jan-20 05:15 236 1 gusting 4 -2.2
2020-Jan-20 05:05 235 1 gusting 4 -2.2
2020-Jan-20 04:55 236 1 gusting 3 -2.2
2020-Jan-20 04:45 236 0 gusting 3 -2.2
2020-Jan-20 04:35 231 0 gusting 1 -2.2
2020-Jan-20 04:25 229 1 gusting 3 -2.2
2020-Jan-20 04:15 233 0 gusting 4 -2.2
2020-Jan-20 04:05 247 1 gusting 6 -2.2
2020-Jan-20 03:55 253 1 gusting 6 -2.8
2020-Jan-20 03:45 242 0 gusting 3 -2.8
2020-Jan-20 03:35 249 1 gusting 5 -2.8
2020-Jan-20 03:25 280 3 gusting 8 -2.8
2020-Jan-20 03:15 261 2 gusting 8 -2.8
2020-Jan-20 03:05 274 2 gusting 9 -2.8
2020-Jan-20 02:55 272 2 gusting 8 -2.8
2020-Jan-20 02:45 274 3 gusting 8 -2.8
2020-Jan-20 02:35 269 3 gusting 9 -2.8
2020-Jan-20 02:25 277 1 gusting 6 -2.8
2020-Jan-20 02:15 290 3 gusting 9 -2.8
2020-Jan-20 02:05 264 1 gusting 5 -2.8
2020-Jan-20 01:55 274 4 gusting 10 -2.8
2020-Jan-20 01:45 269 3 gusting 8 -2.8
2020-Jan-20 01:35 275 3 gusting 7 -2.8
2020-Jan-20 01:25 268 4 gusting 9 -2.8
2020-Jan-20 01:15 253 1 gusting 8 -2.8
2020-Jan-20 01:05 237 2 gusting 6 -2.8
2020-Jan-20 00:55 244 1 gusting 5 -2.8
2020-Jan-20 00:45 234 1 gusting 6 -2.8
2020-Jan-20 00:35 242 0 gusting 2 -2.8
2020-Jan-20 00:25 263 0 gusting 4 -2.8
2020-Jan-20 00:15 280 1 gusting 4 -2.8
2020-Jan-20 00:05 288 2 gusting 7 -2.2
2020-Jan-19 23:55 264 3 gusting 7 -2.2
2020-Jan-19 23:45 264 3 gusting 8 -2.2
2020-Jan-19 23:35 260 2 gusting 6 -2.2
2020-Jan-19 23:25 268 3 gusting 12 -2.2
2020-Jan-19 23:15 285 2 gusting 7 -2.2
2020-Jan-19 23:05 288 1 gusting 6 -2.2